Regional Weather Roundup
Issued by NWS

Home | Current Version | Previous Version | Text Only | Print | Product List | Glossary Off
Versions: 1 2 3 4 5 6 7 8 9 10 11 12 13 14 15 16 17 18 19 20 21 22 23 24 25 26 27 28 29 30 31 32 33 34 35 36 37 38 39 40 41 42 43 44 45 46 47 48 49 50

000
ASUS45 KSLC 021310
RWRUT

UTAH REGIONAL WEATHER ROUNDUP
NATIONAL WEATHER SERVICE SALT LAKE CITY UT
700 AM MDT TUE JUN 02 2015

UTZ001>011-023>025-021400-

NORTHERN UTAH

CITY           SKY/WX    TMP DP  RH WIND       PRES   REMARKS
BRIGHAM CITY   PTCLDY    53  46  79 N3        29.93S
HILL AFB       CLEAR     57  42  57 E10       29.95R
LOGAN          SUNNY     49  46  90 CALM      29.97R
OGDEN          PTCLDY    58  44  60 S10       29.93R
PROVO AIRPORT  PTCLDY    55  34  44 E3        29.95S
SALT LAKE CITY MOCLDY    60  45  57 CALM      29.93R
VERNAL         MOSUNNY   56  35  45 CALM      30.00R
WENDOVER       CLEAR     64  34  32 NW22G31   29.93R
HEBER CITY     CLEAR     45  36  70 CALM      30.01S
WEST JORDAN    CLEAR     59  39  47 NW5       29.95R

$$

UTZ012>022-026-027-021400-

SOUTHERN/CENTRAL UTAH

CITY           SKY/WX    TMP DP  RH WIND       PRES   REMARKS
BLANDING       MOSUNNY   55  27  35 N7        30.18S
BRYCE CANYON   CLEAR     35  28  75 W3        30.20R
CEDAR CITY     CLEAR     55  26  32 SW5       30.04S
DELTA          CLEAR     60  19  20 S13       29.98R
HANKSVILLE     CLEAR     61  25  25 CALM      30.00R
MILFORD        CLEAR     58  21  24 SW15      30.01R
MOAB/CYNLANDS  SUNNY     65  26  23 SW10      29.97R
PRICE          SUNNY     62  25  24 E6        30.03R
ST GEORGE      SUNNY     66  21  18 E14       29.94R
KANAB          CLEAR     46  32  57 NE3       30.10R

$$

REGIONAL REPORTS     COLORADO/ARIZONA

CITY           SKY/WX    TMP DP  RH WIND       PRES   REMARKS
CRAIG, CO      MOSUNNY   47  43  86 CALM      30.08R
GRAND JUNCTION MOSUNNY   64  31  28 SE9       30.01R
RIFLE          MOSUNNY   51  42  71 CALM      30.07R
MONTROSE       SUNNY     60  30  32 E8        30.11R
CORTEZ         SUNNY     50  34  54 E6        30.15R
PAGE, AZ       CLEAR     69  21  16 SW6       30.01R
GRAND CANYON   PTCLDY    38  26  62 CALM      30.19R
KINGMAN        CLEAR     63  23  21 VRB3      29.97R
FLAGSTAFF      PTCLDY    51  24  34 W5        30.21R

$$

REGIONAL REPORTS    NEVADA/IDAHO/WYOMING

CITY           SKY/WX    TMP DP  RH WIND       PRES   REMARKS
LAS VEGAS, NV  PTCLDY    73  33  23 S16G24    29.82R
ELY            CLEAR     43  36  76 SE8       30.08R
ELKO           CLEAR     49  37  63 SW5       30.06R
POCATELLO, ID  MOCLDY    49  48  97 W5        29.99R
BURLEY         CLOUDY    52  48  86 W8        30.00R
EVANSTON, WY   MOSUNNY   49  38  65 E5        30.07R
ROCK SPRINGS   PTSUNNY   52  40  63 NE3       30.06S
KEMMERER       MOSUNNY   43  36  75 N10       30.09R

$$


USA.gov is the U.S. government's official web portal to all federal, state and local government web resources and services.